Regional Weather Roundup
Issued by NWS

Home | Current Version | Previous Version | Graphics & Text | Print | Product List | Glossary On
Versions: 1 2 3 4 5 6 7 8 9 10 11 12 13 14 15 16 17 18 19 20 21 22 23 24 25 26 27 28 29 30 31 32 33 34 35 36 37 38 39 40 41 42 43 44 45 46 47 48 49 50
000
ASUS45 KCYS 202310
RWRWY

WYOMING REGIONAL WEATHER ROUNDUP
NATIONAL WEATHER SERVICE CHEYENNE WY
500 PM MDT SAT SEP 20 2014

NOTE:  "FAIR" INDICATES FEW OR NO CLOUDS BELOW 12,000 FEET
WITH NO SIGNIFICANT WEATHER AND/OR OBSTRUCTIONS TO VISIBILITY.

WYZ001-210000-
YELLOWSTONE NATIONAL PARK

CITY           SKY/WX    TMP DP  RH WIND       PRES   REMARKS
LK YELLOWSTONE   N/A     63  35  35 S3        30.40F
W YELLOWSTONE  NOT AVBL

$$
WYZ002>013-054>058-071-098>099-210000-
NORTHERN WYOMING

CITY           SKY/WX    TMP DP  RH WIND       PRES   REMARKS
JACKSON        SUNNY     75  37  25 VRB6      30.27F
CODY             N/A    N/A N/A N/A MISG        N/A
GREYBULL       SUNNY     78  37  22 MISG      30.19F
WORLAND        SUNNY     76  38  25 E5        30.21F
SHERIDAN       SUNNY     73  42  32 N12       30.25S
BUFFALO        SUNNY     69  40  34 N13       30.30S
GILLETTE       SUNNY     71  38  29 N17       30.25R
HULETT         FAIR      70  36  28 MISG      30.26
NEWCASTLE      FAIR      72  32  23 NW17G25   30.23

$$
WYZ014>020-022>026-101>103-210000-
CENTRAL WYOMING

CITY           SKY/WX    TMP DP  RH WIND       PRES   REMARKS
BIG PINEY      SUNNY     76  29  17 W6        30.30F
PINEDALE       CLEAR     75  27  16 E6        30.31F
DUBOIS         FAIR      68  36  30 SE17G23   30.32S
LANDER         SUNNY     78  37  22 NE7       30.23F
RIVERTON       SUNNY     77  37  23 NE8       30.25F
CASPER         SUNNY     77  38  24 NE13      30.27R
DOUGLAS        SUNNY     76  40  27 NE13      30.26S

$$
WYZ021-027>030-104>119-210000-
SOUTHERN WYOMING

CITY           SKY/WX    TMP DP  RH WIND       PRES   REMARKS
EVANSTON       SUNNY     77  23  13 NE3       30.29F
KEMMERER       CLEAR     73  32  21 E7        30.32F
FORT BRIDGER   FAIR      76  25  15 N5        30.33S
ROCK SPRINGS   SUNNY     76  30  18 E5        30.28F
DIXON          FAIR      79  34  19 SW5       30.28F
RAWLINS        SUNNY     77  32  19 NW5       30.30F
SARATOGA       FAIR      73  32  21 N6        30.32F
LARAMIE        SUNNY     74  34  23 N7        30.33S
CHEYENNE       SUNNY     76  43  30 NE14      30.28R
TORRINGTON     SUNNY     80  44  27 N14       30.18R
PINE BLUFFS    FAIR      79  43  27 NE9G16    30.23S

$$


USA.gov is the U.S. government's official web portal to all federal, state and local government web resources and services.